Regional Weather Roundup
Issued by NWS Jackson, KY

Home | Current Version | Previous Version | Text Only | Print | Product List | Glossary On
Versions: 1 2 3 4 5 6 7 8 9 10 11 12 13 14 15 16 17 18 19 20 21 22 23 24 25 26 27 28
000
ASUS43 KJKL 301210
RWRJKL

EAST KENTUCKY HOURLY WEATHER ROUNDUP
NATIONAL WEATHER SERVICE JACKSON KY
800 AM EDT TUE MAY 30 2017

NOTE: "FAIR" INDICATES FEW OR NO CLOUDS BELOW 12,000 FEET WITH
NO SIGNIFICANT WEATHER AND/OR OBSTRUCTIONS TO VISIBILITY.

* THESE REPORTS ARE NOT UNDER NWS QUALITY CONTROL AND MAY NOT
  REPORT WEATHER SUCH AS PRECIPITATION AND FOG.

KYZ079-080-083-085-087-088-110-112-115-119-120-301300
...EASTERN KENTUCKY...

CITY           SKY/WX    TMP DP  RH WIND       PRES   REMARKS
JACKSON        CLOUDY    64  62  93 CALM      30.09R
6HR MIN TEMP:  62; 6HR MAX TEMP:  65;

LONDON         CLOUDY    63  60  90 CALM      30.11R
6HR MIN TEMP:  61; 6HR MAX TEMP:  64;

SOMERSET*      SUNNY     63  63 100 CALM      30.11R
MONTICELLO*    MOSUNNY   65  64  97 N8        30.12R
6HR MIN TEMP:  61; 6HR MAX TEMP:  65;

WILLIAMSBURG*  CLOUDY    63  63 100 S3        30.11S
MIDDLESBORO*   FOG       60  60 100 CALM      30.13R VSB 1/2
6HR MIN TEMP:  59; 6HR MAX TEMP:  62;

HARLAN APT*    CLOUDY    61  59  94 CALM      30.13S VSB<1/4
PIKE CO APT*     N/A     65  64  96 CALM      30.10R
BIG SANDY APT* MOSUNNY   66  63  89 SW5       30.08R
6HR MIN TEMP:  64; 6HR MAX TEMP:  67;

MOREHEAD APT*  SUNNY     66  59  77 W6        30.09R
ASHLAND*       SUNNY     64  61  88 W3        30.02R
$$

KYZ035-036-041-042-044-050-067-078-099-301300
...CENTRAL KENTUCKY...

CITY           SKY/WX    TMP DP  RH WIND       PRES   REMARKS
MT STERLING*   MOSUNNY   66  61  82 W3        30.09R
FLEMING/MASON* PTSUNNY   64  58  80 W8        30.07R
DANVILLE*      PTSUNNY   64  61  88 SW5       30.10R
LEXINGTON      MOSUNNY   66  56  70 W6        30.08R
6HR MIN TEMP:  63; 6HR MAX TEMP:  67;

FRANKFORT      SUNNY     65  56  72 SW6       30.06R
6HR MIN TEMP:  63; 6HR MAX TEMP:  68;

LOUISVILLE     MOSUNNY   68  58  70 SW7       30.05R
6HR MIN TEMP:  64; 6HR MAX TEMP:  72;

LEBANON*         N/A     66  57  72 S6        30.08R
GLASGOW*       SUNNY     65  59  81 CALM      30.08S
BOWLING GREEN  SUNNY     68  62  81 S3        30.07R
6HR MIN TEMP:  63; 6HR MAX TEMP:  70; 6HR PCP:  0.01;

$$

KYZ091>093-OHZ055-061-077-WVZ005-015-034-035-042-301300
...SOUTHERN OHIO/WEST VIRGINIA...

CITY           SKY/WX    TMP DP  RH WIND       PRES   REMARKS
COVINGTON      MOSUNNY   64  56  75 SW3       30.03S
COLUMBUS       MOSUNNY   64  58  80 CALM      30.00R
DAYTON         SUNNY     62  55  77 SW10      30.02R
WILMINGTON     SUNNY     64  57  78 W6        30.03R
HUNTINGTON     MOSUNNY   65  60  84 SW5       30.04R
CHARLESTON     CLOUDY    64  60  87 CALM      30.04R
PINEVILLE*     CLOUDY    60  59  97 MISG      30.16R
BECKLEY        MOSUNNY   63  59  87 SW6       30.12R
BLUEFIELD      SUNNY     61  58  90 W8        30.15R
LOGAN CO APT*    N/A     64  61  88 CALM      30.09R
$$

VAZ002-007-008-TNZ017-027-036-066-071-301300
...SOUTHWEST VIRGINIA/EAST TENNESSEE...

CITY           SKY/WX    TMP DP  RH WIND       PRES   REMARKS
WISE*          MOSUNNY   63  63 100 CALM      30.16S
JONESVILLE*    PTSUNNY   64  64 100 CALM      30.15R
ABINGDON*      CLOUDY    65  65 100 W6        30.15R FOG
BRISTOL        PTSUNNY   66  64  93 SW5       30.13R
MORRISTOWN*    PTSUNNY   66  64  94 W6        30.12R
SEVIERVILLE*   SUNNY     63  63 100 CALM      30.12R
KNOXVILLE      CLOUDY    65  63  93 SW7       30.12R FOG
LAFOLLETTE*    FOG       64  64 100 CALM      30.15R VSB 1/4
OAK RIDGE      CLOUDY    66  63  90 VRB3      30.14R
CROSSVILLE     CLOUDY    61  60  97 CALM      30.15R
NASHVILLE      MOSUNNY   67  65  93 S3        30.09R
$$

...KEY TO REMARKS...
VSB - VISIBILITY IN MILES
WCI - WIND CHILL INDEX
HX  - HEAT INDEX

$$




USA.gov is the U.S. government's official web portal to all federal, state and local government web resources and services.